Flag for Cyprus Weather past 2 weeks in Limassol, Cyprus

Now
55 °F

Light rain. Passing clouds.


Feels Like: 54 °F
Forecast: 51 / 69 °F
Wind: 6 mph from South

Location: Akrotiri

Current Time: Mar 31, 2015 at 10:12:38 PM

Latest Report: Mar 31, 2015 at 9:50 PM


Visibility: N/A

Pressure: 29.80 "Hg

Humidity: 94%

Dew point: 54 °F

Location of LimassolLocation

Historic Weather in Limassol — Graph

°F

Limassol temperature yesterday

Maximum temperature yesterday: 66 °F (at 1:50 PM)
Minimum temperature yesterday: 54 °F (at 12:50 AM)
Average temperature yesterday: 60 °F

Past Weeks' High & Low Weather Summary

 TemperatureHumidityPressure
High72 °F (Mar 26, 10:50 AM)100% (Mar 29, 4:50 AM)30.15 "Hg (Mar 29, 4:50 AM)
Low48 °F (Mar 17, 3:50 AM)31% (Mar 21, 3:50 PM)29.71 "Hg (Mar 28, 12:50 AM)
Average60 °F65%29.96 "Hg
* Reported Mar 16 7:50 PM — Mar 31 8:50 PM, Limassol, Weather by CustomWeather, © 2015

Note: Actual official high and low records may vary slightly from our data, if they occured in-between our weather recording intervals... More about our weather records

Advertising

Limassol weather history for previous 24 hours

 ConditionsComfort  
Time TempWeatherWind HumidityBarometerVisibility
8:50 PM
Tue, Mar 31
57 °FLight rain. Partly cloudy.10 mph94%29.80 "HgN/A
7:50 PM61 °FLight rain. Partly sunny.8 mph77%29.80 "HgN/A
6:50 PM61 °FLight rain. Partly sunny.7 mph88%29.80 "HgN/A
5:50 PM63 °FSprinkles. Broken clouds.8 mph73%29.83 "HgN/A
4:50 PM64 °FPartly sunny.7 mph64%29.83 "HgN/A
3:50 PM64 °FPartly sunny.7 mph64%29.86 "HgN/A
2:50 PM66 °FPartly sunny.10 mph60%29.89 "HgN/A
1:50 PM66 °FPassing clouds.14 mph56%29.92 "HgN/A
12:50 PM66 °FPartly sunny.15 mph56%29.92 "HgN/A
11:50 AM66 °FPartly sunny.13 mph60%29.95 "HgN/A
10:50 AM64 °FPartly sunny.10 mph64%29.95 "HgN/A
9:50 AM63 °FPartly sunny.10 mph64%29.95 "HgN/A
8:50 AM63 °FPartly sunny.8 mph68%29.92 "HgN/A
7:50 AM59 °FBroken clouds.3 mph88%29.92 "HgN/A
6:50 AM59 °FPartly cloudy.5 mph88%29.92 "HgN/A
5:50 AM57 °FPassing clouds.3 mph88%29.92 "HgN/A
4:50 AM59 °FPassing clouds.6 mph82%29.89 "HgN/A
3:50 AM59 °FPassing clouds.8 mph82%29.92 "HgN/A
2:50 AM61 °FPassing clouds.12 mph72%29.92 "HgN/A
1:50 AM59 °FPassing clouds.8 mph77%29.92 "HgN/A
12:50 AM61 °FPassing clouds.12 mph72%29.92 "HgN/A
11:50 PM
Mon, Mar 30
61 °FPassing clouds.15 mph72%29.92 "HgN/A
10:50 PM61 °FPassing clouds.14 mph72%29.92 "HgN/A
Weather by CustomWeather, © 2015

See weather overviewHow to use our weather pages